Regional Weather Roundup
Issued by NWS Newport/Morehead, NC

Current Version | Previous Version | Graphics & Text | Print | Product List | Glossary On
Versions: 1 2 3 4 5 6 7 8 9 10 11 12 13 14 15 16 17 18 19 20 21 22 23 24 25 26 27 28 29 30 31 32 33 34 35 36 37 38 39 40 41 42 43 44 45 46 47 48 49 50
000 ASUS42 KMHX 292013 RWRMHX WEATHER ROUNDUP FOR EASTERN NORTH CAROLINA NATIONAL WEATHER SERVICE NEWPORT/MOREHEAD CITY NC 400 PM EDT FRI MAY 29 2015 NOTE: "FAIR" INDICATES FEW OR NO CLOUDS BELOW 12,000 FEET WITH NO SIGNIFICANT WEATHER AND/OR OBSTRUCTIONS TO VISIBILITY NCZ015>017-031-032-045>047-102-103-292100- NORTH COAST CITY SKY/WX TMP DP RH WIND PRES REMARKS EDENTON N/A 81 69 65 E8 30.23F ELIZABETH CITY SUNNY 81 65 58 SE13 30.23F KITTY HAWK CLEAR 78 66 67 E8 30.24F MANTEO SUNNY 78 67 69 E12 30.25F $$ NCZ045>047-081-094-103-104-292100- CENTRAL COAST CITY SKY/WX TMP DP RH WIND PRES REMARKS FRISCO MOSUNNY 82 67 60 SE7 30.24F SWANQUARTER N/A 82 N/A N/A SE6G16 30.18F $$ NCZ095-097-098-100-101-292100- SOUTHERN COAST CITY SKY/WX TMP DP RH WIND PRES REMARKS BEAUFORT MOSUNNY 79 68 69 E12 30.23S CEDAR ISLAND N/A 81 N/A N/A E9G15 30.27S JACKSONVILLE SUNNY 84 64 50 E10 30.21F PINEY ISLAND MOCLDY N/A N/A N/A SE12 30.23F WILMINGTON SUNNY 82 65 56 SE12 30.22F $$ NCZ011>013-027>030-043-044-078>080-089-090>093-098-292100- COASTAL PLAIN CITY SKY/WX TMP DP RH WIND PRES REMARKS AHOSKIE SUNNY 84 59 41 S7 30.21F CLINTON SUNNY 86 62 44 CALM 30.20F ELIZABETHTOWN MOSUNNY 87 59 39 SE6 30.19F GOLDSBORO MOSUNNY 87 59 38 CALM 30.18F GREENVILLE MOSUNNY 86 64 48 SE10 30.22F HAVELOCK PTSUNNY 83 66 56 SE12 30.22F KENANSVILLE MOSUNNY 81 62 53 CALM 30.22F KINSTON MOSUNNY 86 61 42 E6 30.21F NEW BERN SUNNY 86 65 49 SE12 30.22F RICHLANDS MOSUNNY 88 63 42 S3 30.21F ROCKY MOUNT SUNNY 87 58 37 S8 30.21F WASHINGTON SUNNY 84 61 45 SE8 30.22F WHITEVILLE MOSUNNY 85 64 48 SE8 30.19F $$ AMZ130-135-150-152-154-156-158-170-250-252-270-ANZ085-086-088-633-658-670-292100- MARINE OBSERVATIONS STATION/POSITION TIME TEMP WIND PRES WAVE SWELL AIR SEA DIR/SP/G HT/PER HT/PER (UTC) (F) (DEG/KT/KT) (MB) (FT/S) (FT/S) CHESAPEAKE LIGHT 1900 69 130/ 13/ 13 1025.3 64 E VA BEACH 1950 71 70 90/ 6/ 8 1024.3 3/ 8 3/ 8 DUCK 1900 74 66 80/ 8/ 8 1023.7 2 E DUCK 1911 71 N/A 2/ 9 OREGON INLET 1900 75 79 40/ 8/ 10 1024.6 13E OREGON INLT 2000 76 N/A 3/ 9 HATTERAS CG 1900 77 77 140/ 5/ 6 1023.9 DIAMOND BUOY 1950 77 81 130/ 6/ 10 1023.8 4/ 8 3/ 8 CAPE LOOKOUT 2000 76 110/ 7/ 7 1023.3 BEAUFORT LAB 1900 78 77 140/ 10/ 17 1023.0 27 SE WRIGHTSVLE 1900 76 150/ 8/ 10 N/A 5 SE WRIGHTSVLE 1908 77 78 90/ 10/ 14 1023.6 225 S CAPE HAT 1950 75 75 90/ 16/ 17 1021.8 6/ 9 3/ 9 41 SE CHARLESTON 1950 78 79 80/ 10/ 12 1021.9 4/ 7 3/ 7 $$

USA.gov is the U.S. government's official web portal to all federal, state and local government web resources and services.